If you wish to contribute or participate in the discussions about articles you are invited to join SKYbrary as a registered user

 Actions

Ajaccio-Napoléon Bonaparte Airport

From SKYbrary Wiki

LFKJ
Airport
ICAO: LFKJ – IATA: AJA
Summary
Name Ajaccio-Napoléon Bonaparte Airport
Region Europe
Territory France FR.gif
Location Ajaccio, Corse
Serving Ajaccio
Elevation 5.486 m <br />18 ft <br />18 ft5.486 m <br />
Type medium airport
Coordinates 41° 55' 25.09" N, 8° 48' 10.50" E
Runways
Designator Length Width Surface ROPS
2/20 2407 m7,896.982 ft <br /> 45 m147.638 ft <br /> ASP yes/yes


METAR
Observation LFKJ 082300Z AUTO 04007KT CAVOK 12/09 Q1018 TEMPO BKN003
Station Ajaccio
Date/Time 08 May 2021 23:00:00
Wind direction 40°
Wind speed 07 kts
Lowest cloud amount broken clouds
Temperature 12°C
Dew point 9°C
Humidity 81%
QNH 1018 hPa
Weather condition n/a

Ajaccio-Napoléon Bonaparte Airport

ICAO: LFKJ IATA: AJA

Description

International airport serving Ajaccio south and central Corsica.

Climatology

Dry-summer subtropical ”Mediterranean" climate (Köppen climate classification Csa) - characterized by hot, dry summers and mild winters. During the summer, subtropical high pressure cells dominate, making rainfall unlikely except for the occasional thunderstorm. In the winter, periodic storms bring rain (snow at higher elevations).

Maps

Terrain

Loading map...

Airport Layout

Loading map...


Accidents & Serious Incidents at or in vicinity of LFKJ

None on SKYbrary